Location: Goudex
(43.3760°N, 0.9543°E)
Time: 18:30:07
(UTC+00:00)

Tsikada Rocket - Pass Details

Date: 20 November 2019
Orbit: 958 x 1009 km, 82.9° (Epoch: 12 December)

Event Time Altitude Azimuth Distance (km) Brightness Sun altitude
Rises 06:00:52 0° 345° (NNW) 3,740 6.7 -10.0°
Reaches altitude 10° 06:03:31 10° 340° (NNW) 2,781 6.0 -9.5°
Maximum altitude 06:09:29 43° 271° (W) 1,363 4.4 -8.5°
Drops below altitude 10° 06:15:20 10° 202° (SSW) 2,733 6.3 -7.5°
Sets 06:17:56 0° 196° (SSW) 3,669 7.1 -7.1°
